Regional Weather Roundup
Issued by NWS

Home | Current Version | Previous Version | Graphics & Text | Print | Product List | Glossary On
Versions: 1 2 3 4 5 6 7 8 9 10 11 12 13 14 15 16 17 18 19 20 21 22 23 24 25 26 27 28 29 30 31 32 33 34 35 36 37 38 39 40 41 42 43 44 45 46 47 48 49 50
000
ASUS43 KMPX 231210
RWRMN
WEATHER ROUNDUP FOR MINNESOTA
NATIONAL WEATHER SERVICE TWIN CITIES/CHANHASSEN MN
700 AM CDT MON OCT 23 2017


NOTE: "FAIR" INDICATES FEW OR NO CLOUDS BELOW 12,000 FEET WITH NO
SIGNIFICANT WEATHER AND/OR OBSTRUCTIONS TO VISIBILITY. N/A MEANS
CURRENT SKY AND/OR WEATHER CONDITIONS ARE NOT AVAILABLE.

MNZ060>063-068>070-231300-
   Twin Cities Metro

CITY           SKY/WX    TMP DP  RH WIND       PRES   REMARKS
TWIN CITIES    MOCLDY    52  36  54 SW8       29.78R
6HR MIN TEMP:  47; 6HR MAX TEMP:  57;

ST PAUL        MOCLDY    48  37  65 SE5       29.79R
CRYSTAL        CLOUDY    51  33  50 S9        29.77R
BLAINE         MOCLDY    50  37  62 S7        29.76R
LAKEVILLE      MOCLDY    46  36  66 SW3       29.78R
EDEN PRAIRIE   CLOUDY    50  36  58 SW8       29.77R
6HR MIN TEMP:  50; 6HR MAX TEMP:  57; 6HR PCP: TRACE;

SOUTH ST PAUL  MOCLDY    49  36  59 S3        29.78R
LAKE ELMO      FAIR      46  37  71 SW7       29.79R
$$
MNZ001>005-007-008-013>017-022>024-027-028-231300-
   Northwest Minnesota

CITY           SKY/WX    TMP DP  RH WIND       PRES   REMARKS
BEMIDJI        PTCLDY    48  42  79 SW8       29.64S
HALLOCK        CLOUDY    46  39  76 NW17G26   29.68R
ROSEAU         MOCLDY    45  39  81 W9        29.60R
WARROAD        CLOUDY    48  45  87 W6        29.59R
THIEF RVR FALL CLOUDY    45  38  76 W16       29.67R
CROOKSTON      CLOUDY    46  41  81 NW17      29.70R
FOSSTON        PTCLDY    45  39  81 W12       29.68R
DETROIT LAKES  PTCLDY    48  39  71 W14G21    29.73R
MOORHEAD       CLOUDY    48  36  61 W25G36    29.76R
PARK RAPIDS    CLOUDY    46  43  89 W9        29.68R
MAHNOMEN       FAIR      45  39  79 W16       29.70R
$$
MNZ006-009>011-018-025>026-231300-
   North Central Minnesota

CITY           SKY/WX    TMP DP  RH WIND       PRES   REMARKS
BAUDETTE       LGT RAIN  48  48 100 SW6       29.59R
FLAG ISLAND    CLOUDY    48  37  66 CALM      29.57R
INTL FALLS     LGT RAIN  48  43  82 S3        29.60S
6HR MIN TEMP:  47; 6HR MAX TEMP:  54; 6HR PCP:  0.04;

WASKISH        CLOUDY    50  46  87 SW8       29.62R
BIG FORK       CLOUDY    46  43  87 S3        29.63S
LONGVILLE      CLOUDY    52  39  62 W7        29.66R
GRAND RAPIDS   MOCLDY    51  38  60 S7        29.67R
CRANE LAKE     RAIN      45  43  93 S5        29.66S
ORR            LGT RAIN  45  39  81 CALM      29.62S
COOK           RAIN      46  41  81 S5        29.65S
WALKER         CLOUDY    50  40  69 SW8       29.66S
$$
MNZ012-019>021-037-231300-
   Northeast Minnesota

CITY           SKY/WX    TMP DP  RH WIND       PRES   REMARKS
DULUTH         CLOUDY    51  35  54 SW13      29.68F
6HR MIN TEMP:  51; 6HR MAX TEMP:  53; 6HR PCP: TRACE;

ELY            CLOUDY    52  32  46 S7G16     29.66R
HIBBING        CLOUDY    47  36  65 S3        29.65F
EVELETH        DRIZZLE   50  29  43 S6        29.66F
DULUTH HARBOR  CLOUDY    55  39  54 SW8       29.69F
TWO HARBORS    CLOUDY    52  41  66 CALM      29.67F
SILVER BAY     CLOUDY    52  39  62 S5        29.67F
G MARAIS ARPRT MOCLDY    46  37  71 SE3       29.73F
$$
MNZ029>031-032-039>041-046>048-054>057-064-231300-
   West Central Minnesota

CITY           SKY/WX    TMP DP  RH WIND       PRES   REMARKS
FERGUS FALLS   CLOUDY    50  39  66 W13       29.78R
WHEATON        MOCLDY    52  36  54 W14       29.82R
MORRIS         PTCLDY    52  39  62 W13       29.79R
ALEXANDRIA     PTCLDY    51  41  68 W16       29.78R
ELBOW LAKE     MOCLDY    50  40  69 NW12      29.78R
WADENA         MOCLDY    50  41  71 W9        29.72R
GLENWOOD       PTCLDY    52  43  71 W14       29.78R
APPLETON       CLOUDY    54  39  58 W12       29.81R
BENSON         CLOUDY    54  41  62 NW15      29.81R
ORTONVILLE     CLOUDY    52  39  62 W13G23    29.81R
MADISON        MOCLDY    55  41  58 NW15      29.83R
WILLMAR        FAIR      52  45  76 W10       29.80R
$$
MNZ033>034-036-042>043-049>051-058-059-231300-
   Central Minnesota

CITY           SKY/WX    TMP DP  RH WIND       PRES   REMARKS
ST CLOUD       PTCLDY    46  39  76 SW7       29.74S
6HR MIN TEMP:  45; 6HR MAX TEMP:  53;

SAUK CENTRE    FAIR      50  42  75 W14       29.75R
PAYNESVILLE    PTCLDY    48  41  76 W13       29.76R
AITKIN         MOCLDY    52  37  58 SW8       29.66F
PINE RIVER     CLOUDY    52  39  62 W8        29.72R
BRAINERD       PTCLDY    49  38  65 SW9       29.70R
STAPLES        CLEAR     48  39  71 W8        29.71R
LONG PRAIRIE   FAIR      50  41  71 SW12      29.74R
LITTLE FALLS   CLEAR     52  34  50 W6        29.72S
LITCHFIELD     PTCLDY    50  41  71 W10       29.77S
BUFFALO        CLEAR     48  37  64 S5        29.77S
MAPLE LAKE     CLEAR     47  39  73 CALM      29.76R
HUTCHINSON     PTCLDY    47  39  74 SW5       29.79S
$$
MNZ037-044-045-052-053-231300-
   East Central Minnesota

CITY           SKY/WX    TMP DP  RH WIND       PRES   REMARKS
PRINCETON      PTCLDY    48  37  66 S5        29.74S
MORA           PTCLDY    48  36  61 S7        29.74S
CAMBRIDGE      CLOUDY    52  37  58 S6        29.75R
RUSH CITY      CLOUDY    50  36  57 S7        29.73S
MOOSE LAKE     CLOUDY    52  34  50 S7        29.69S
HINCKLEY       CLOUDY    50  37  62 S7        29.72S
CLOQUET        CLOUDY    52  32  46 S9        29.68F
MCGREGOR       CLOUDY    50  41  71 S6        29.68S
$$
MNZ071>073-080-081-089-090-097-098-231300-
   Southwest Minnesota

CITY           SKY/WX    TMP DP  RH WIND       PRES   REMARKS
MONTEVIDEO     MOCLDY    54  43  66 NW13G20   29.82R
GRANITE FALLS  PTCLDY    54  43  67 W16       29.84R
CANBY          MOCLDY    54  40  59 NW20      29.86R
MARSHALL       CLOUDY    54  41  61 NW20G25   29.84R
REDWOOD FALLS  PTCLDY    52  40  63 W16       29.81R
OLIVIA         MOCLDY    52  43  71 W13       29.79R
PIPESTONE      CLOUDY    52  39  62 NW15G24   29.88R
WORTHINGTON    PTCLDY    52  39  61 NW16      29.87R
JACKSON        CLOUDY    52  36  54 NW16G23   29.84S
TRACY          MOCLDY    55  42  62 NW14G23   29.85R
SLAYTON        CLOUDY    51  40  64 W15       29.87R
$$
MNZ065>067-074>077-082>085-091>093-231300-
   South Central Minnesota

CITY           SKY/WX    TMP DP  RH WIND       PRES   REMARKS
MANKATO        PTCLDY    47  35  63 SW8       29.81R
NEW ULM          N/A     45  36  70 W8        29.81R
ST JAMES       PTCLDY    48  37  66 W10       29.82S
FAIRMONT       CLOUDY    44  37  76 W6        29.83R
GLENCOE        PTCLDY    46  38  73 S5        29.77S
FARIBAULT      CLEAR     46  37  71 S7        29.79S
OWATONNA       CLEAR     45  37  76 S9        29.80S
WASECA         PTCLDY    41  34  75 SW6       29.81S
$$
MNZ078>079-086>088-094>096-231300-
   Southeast Minnesota

CITY           SKY/WX    TMP DP  RH WIND       PRES   REMARKS
ROCHESTER      CLEAR     44  38  79 S10       29.80F
6HR MIN TEMP:  44; 6HR MAX TEMP:  48; 6HR PCP: TRACE;

RED WING       CLEAR     52  36  54 S3        29.78S
STANTON        CLEAR     46  38  73 S7        29.77S
DODGE CENTER   CLEAR     45  37  76 S9        29.79F
WINONA         CLOUDY    48  41  76 SE8       29.82F
AUSTIN         CLEAR     43  37  81 S6        29.81F
PRESTON        CLEAR     43  38  83 S10       29.83F
$$
ABBREVIATIONS USED IN REMARKS
   TC - TEMPERATURES IN CELSIUS
  WCI - WIND CHILL INDEX
   HX - HEAT INDEX
  VSB - VISIBILITY
$$




USA.gov is the U.S. government's official web portal to all federal, state and local government web resources and services.